ONEWEB-0080 (45426 NORAD) Tracking and Keplerian Element Data

This shows tracking and keplerian element data for the satellite.

Feedback or suggestion? Click here.




ElementValue
Catalog45426
NameONEWEB-0080
Epoch Orbit1567
Epoch Day185.58334491
Epoch Year2020
RAAN104.9902
Inclination87.5722
Eccentricity0.0025359
Argument of Perigee272.7953
Mean Anonmoly253.4345
Mean Motion14.90063661
Decay Rate0.00036859
L11 45426U 20020C 20185.58334491 .00036859 00000-0 37773-2 0 9998
L22 45426 87.5722 104.9902 0025359 272.7953 253.4345 14.90063661 15679

Live tracking and technical data element details for ONEWEB-0080 (NORAD 45426). ONEWEB-0080 can be tracked NOW for your location showing map with azimuth and elevation plus other details from your city location.

Track the satellite on the map from your city or location and see movement details for azimuth, elevation, latitude, longitude, range, height, and movement on the map or in text.







IsCatalogInMostPopularTable: catalog: 45426, numindb: 19
Update: records affected: 1



GetName: 45426 ONEWEB-0080

Hit Count: updated at: Fri, 03 Jul 2020 17:44:08 GMT